Total_Precipitation_Accumulation
3.06 3.08 2.98 3.08 3.06 3.07 2.93 2.71 2.58 2.53 2.40 2.22 2.12 2.17 2.18 2.11 2.08 2.10 2.03 2.12 2.22 2.26 2.30 2.41 2.51 2.61 2.76 2.81 2.90 2.92 2.99 3.05 2.90 2.47 2.34 2.33 2.33 2.26 2.32 2.18 2.06 2.00 1.82
2.74 2.87 2.93 2.97 2.89 2.79 2.60 2.48 2.38 2.26 2.11 2.07 2.06 2.11 2.10 2.02 2.01 1.94 1.81 1.88 1.99 2.06 2.12 2.21 2.27 2.36 2.47 2.42 2.53 2.56 2.62 2.74 2.72 2.62 2.59 2.51 2.47 2.41 2.29 2.11 1.82 1.60 1.56
2.48 2.51 2.65 2.67 2.55 2.43 2.36 2.33 2.25 2.11 2.04 2.06 2.08 2.08 2.09 2.05 2.03 1.97 1.93 1.88 1.79 1.80 1.89 1.94 1.99 2.09 2.07 2.01 2.05 2.05 2.16 2.29 2.55 2.53 2.44 2.57 2.49 2.46 2.54 2.21 1.94 1.91 1.47
2.43 2.57 2.61 2.53 2.41 2.32 2.16 2.00 1.91 1.84 1.89 1.98 1.95 1.91 1.89 1.83 1.74 1.78 1.84 1.82 1.72 1.68 1.68 1.69 1.67 1.62 1.62 1.68 1.71 1.78 1.94 2.25 2.47 2.44 2.27 2.26 2.30 2.27 2.47 2.32 2.19 2.08 1.79
2.38 2.37 2.30 2.23 2.19 2.18 2.11 1.96 1.81 1.69 1.62 1.74 1.73 1.72 1.68 1.57 1.46 1.50 1.58 1.58 1.63 1.60 1.57 1.54 1.46 1.43 1.48 1.46 1.38 1.54 1.82 2.13 2.27 2.32 2.26 2.17 2.10 2.15 2.17 2.05 2.04 2.07 1.98
2.10 2.11 2.03 2.01 2.11 2.09 2.01 1.87 1.77 1.68 1.61 1.63 1.62 1.56 1.46 1.25 1.28 1.31 1.30 1.36 1.47 1.53 1.52 1.43 1.34 1.33 1.32 1.28 1.26 1.36 1.53 1.72 1.90 2.04 2.05 2.02 1.99 2.04 2.12 2.11 2.11 2.15 2.08
1.95 1.91 1.93 1.92 1.91 1.90 1.75 1.66 1.68 1.73 1.62 1.54 1.46 1.38 1.27 1.20 1.19 1.15 1.19 1.26 1.37 1.44 1.48 1.50 1.31 1.14 1.25 1.25 1.28 1.31 1.32 1.40 1.55 1.78 1.90 1.85 1.92 2.03 2.25 2.20 2.23 2.23 2.10
1.91 1.79 1.75 1.76 1.71 1.69 1.69 1.67 1.66 1.66 1.60 1.52 1.41 1.32 1.26 1.13 1.11 1.08 1.10 1.16 1.32 1.37 1.37 1.39 1.43 1.38 1.31 1.33 1.31 1.30 1.26 1.29 1.38 1.49 1.65 1.71 1.73 1.89 2.12 2.13 2.16 2.16 2.04
1.66 1.61 1.54 1.53 1.59 1.62 1.59 1.68 1.67 1.59 1.54 1.44 1.36 1.35 1.32 1.17 1.09 1.04 1.10 1.19 1.30 1.28 1.20 1.20 1.19 1.19 1.23 1.32 1.39 1.45 1.42 1.36 1.21 1.28 1.34 1.47 1.60 1.70 1.82 1.90 2.03 2.19 2.09
1.56 1.55 1.47 1.46 1.49 1.53 1.55 1.60 1.55 1.53 1.50 1.38 1.31 1.34 1.34 1.27 1.10 0.98 1.05 1.10 1.13 1.14 1.17 1.14 1.08 1.01 1.01 1.05 1.12 1.35 1.49 1.40 1.31 1.32 1.43 1.58 1.65 1.71 1.72 1.78 1.95 2.11 2.10
1.41 1.50 1.52 1.50 1.49 1.49 1.51 1.54 1.51 1.48 1.52 1.51 1.46 1.45 1.43 1.32 1.17 1.02 1.00 0.99 1.00 1.04 1.09 1.09 1.05 0.95 0.83 0.85 0.98 1.17 1.29 1.31 1.43 1.66 1.86 1.90 1.89 1.85 1.74 1.68 1.83 1.96 2.02
1.41 1.56 1.58 1.58 1.45 1.42 1.58 1.61 1.54 1.51 1.47 1.54 1.55 1.52 1.47 1.40 1.21 1.07 0.99 0.94 0.96 0.99 1.06 1.07 1.02 0.94 0.83 0.85 0.93 1.05 1.14 1.29 1.55 1.85 1.99 1.92 1.69 1.54 1.56 1.56 1.63 1.75 1.82
1.52 1.58 1.63 1.57 1.55 1.54 1.60 1.61 1.54 1.51 1.43 1.40 1.41 1.41 1.36 1.26 1.15 1.03 0.97 0.92 0.92 0.92 0.94 0.97 0.96 0.95 0.96 1.01 1.05 1.08 1.18 1.38 1.61 1.74 1.74 1.62 1.49 1.44 1.50 1.59 1.59 1.73 1.75
1.60 1.57 1.58 1.60 1.59 1.57 1.53 1.46 1.41 1.38 1.32 1.28 1.26 1.26 1.16 1.10 1.00 0.88 0.85 0.84 0.87 0.91 0.92 1.00 1.08 1.13 1.14 1.13 1.17 1.26 1.32 1.42 1.48 1.54 1.52 1.45 1.40 1.46 1.52 1.51 1.58 1.71 1.84
1.50 1.48 1.47 1.50 1.51 1.50 1.38 1.28 1.28 1.21 1.09 1.03 1.01 1.00 0.97 0.94 0.91 0.89 0.84 0.83 0.81 0.83 0.91 1.05 1.22 1.30 1.31 1.26 1.23 1.26 1.30 1.33 1.36 1.33 1.34 1.36 1.39 1.41 1.41 1.43 1.54 1.62 1.71
1.33 1.30 1.30 1.37 1.40 1.34 1.31 1.20 1.10 1.01 1.02 0.97 0.91 0.92 0.91 0.93 0.86 0.75 0.75 0.77 0.81 0.93 0.99 1.19 1.33 1.37 1.38 1.25 1.20 1.17 1.16 1.17 1.15 1.17 1.23 1.30 1.34 1.33 1.34 1.38 1.47 1.58 1.65
1.20 1.19 1.11 1.12 1.22 1.23 1.22 1.19 1.19 1.02 0.92 0.90 0.87 0.89 0.91 0.90 0.83 0.79 0.76 0.83 0.86 0.92 0.98 1.11 1.25 1.33 1.39 1.25 1.16 1.16 1.14 1.12 1.12 1.16 1.21 1.24 1.28 1.29 1.32 1.38 1.44 1.53 1.57
1.09 1.03 1.01 1.06 1.06 1.06 1.09 1.03 1.00 1.07 1.08 1.02 0.95 0.95 0.92 0.90 0.84 0.81 0.81 0.91 0.97 0.97 1.02 1.07 1.16 1.28 1.32 1.28 1.20 1.21 1.19 1.19 1.19 1.21 1.22 1.27 1.31 1.34 1.31 1.30 1.37 1.40 1.45
0.97 0.95 0.95 0.96 1.00 1.03 1.03 0.97 0.91 0.92 0.98 1.04 1.04 0.97 0.93 0.96 0.94 0.88 0.86 0.85 0.90 0.95 0.98 1.01 1.04 1.13 1.21 1.28 1.31 1.28 1.21 1.18 1.19 1.22 1.24 1.29 1.32 1.32 1.32 1.27 1.29 1.33 1.37
0.90 0.88 0.85 0.85 0.89 0.94 0.95 0.94 0.95 0.93 0.90 0.99 1.02 0.92 0.88 0.93 0.96 0.95 0.89 0.87 0.94 0.97 0.98 1.02 1.04 1.06 1.11 1.16 1.23 1.24 1.19 1.13 1.13 1.20 1.28 1.33 1.35 1.35 1.29 1.22 1.25 1.35 1.41
0.73 0.71 0.70 0.67 0.72 0.76 0.77 0.82 0.87 0.85 0.89 0.94 0.90 0.85 0.88 0.91 0.98 0.94 0.90 0.90 1.00 1.08 1.10 1.07 1.03 1.04 1.04 1.04 1.08 1.15 1.16 1.10 1.09 1.15 1.24 1.31 1.30 1.28 1.25 1.19 1.15 1.18 1.23
0.67 0.66 0.58 0.58 0.60 0.64 0.66 0.68 0.70 0.74 0.78 0.80 0.77 0.76 0.84 0.85 0.91 0.92 0.91 0.91 0.96 1.04 1.09 1.09 1.05 1.01 1.01 1.02 1.01 1.02 1.05 1.07 1.08 1.10 1.15 1.18 1.17 1.18 1.18 1.14 1.10 1.10 1.15
0.63 0.66 0.62 0.61 0.62 0.65 0.65 0.66 0.63 0.61 0.67 0.74 0.73 0.71 0.73 0.80 0.86 0.93 0.94 0.94 0.97 1.00 1.03 1.04 1.03 0.97 0.95 0.92 0.91 0.89 0.93 0.98 0.94 0.94 1.01 1.03 1.03 1.06 1.09 1.10 1.09 1.13 1.18
0.62 0.65 0.63 0.58 0.60 0.65 0.66 0.64 0.60 0.58 0.65 0.73 0.76 0.76 0.75 0.78 0.82 0.90 0.96 0.98 0.97 0.97 0.95 0.95 0.91 0.88 0.89 0.90 0.89 0.84 0.84 0.87 0.82 0.79 0.86 0.92 0.96 1.01 1.06 1.11 1.14 1.14 1.19
0.57 0.59 0.59 0.56 0.57 0.62 0.62 0.58 0.58 0.59 0.59 0.68 0.76 0.80 0.77 0.78 0.84 0.90 0.95 0.99 0.99 0.95 0.89 0.87 0.82 0.81 0.83 0.82 0.79 0.77 0.81 0.82 0.81 0.80 0.83 0.89 0.92 0.98 1.06 1.11 1.15 1.12 1.13
0.55 0.59 0.57 0.61 0.62 0.58 0.59 0.60 0.59 0.60 0.60 0.61 0.66 0.74 0.77 0.81 0.82 0.82 0.82 0.85 0.90 0.90 0.83 0.76 0.70 0.69 0.72 0.72 0.69 0.76 0.75 0.70 0.73 0.83 0.84 0.86 0.92 0.96 1.01 1.05 1.06 1.07 1.09